Vorticity
6 4 6 6 6 4 5 8 8 7 7 7 6 8 9 10 10 8 7 8 8 9 9 9 8 8 5 6 4 5 4 6 7 8 10 13 11 16 12 16 21 22 22 22 24 23 21
10 12 8 7 7 8 8 7 7 8 8 7 6 7 8 7 10 12 9 8 8 8 9 9 11 9 8 8 6 5 4 6 6 8 10 9 10 7 10 15 16 25 22 23 21 18 22
5 7 9 9 8 8 7 8 7 4 7 9 10 8 6 6 4 4 8 12 10 9 9 7 8 9 8 7 7 5 4 3 5 9 10 8 5 7 7 15 17 19 17 11 17 17 15
3 6 5 6 6 6 7 7 6 6 4 2 2 2 2 2 3 5 5 3 4 8 11 10 7 10 9 9 9 6 3 3 6 7 13 8 2 6 10 15 20 13 14 16 5 8 18
4 4 5 5 6 6 6 5 7 5 5 5 3 0 -0 1 2 3 3 1 3 5 4 12 13 6 9 7 10 7 2 2 2 10 8 19 6 5 13 16 22 15 -4 15 5 11 6
5 5 3 2 5 5 7 9 9 7 6 5 5 5 5 2 4 2 2 3 3 3 5 6 10 8 9 7 11 8 3 1 2 6 9 21 11 8 20 10 12 14 17 9 13 8 18
10 7 5 4 6 6 6 4 6 10 12 6 6 5 5 5 5 5 2 2 3 4 2 3 5 14 7 5 10 9 5 2 4 4 9 10 17 19 22 5 -0 10 17 13 10 7 9
12 16 18 14 7 5 6 5 4 3 7 11 11 11 7 8 8 7 10 7 9 6 5 4 2 7 9 5 9 13 7 3 5 4 5 11 13 17 15 21 2 4 7 16 22 21 23
8 5 6 5 16 15 10 6 6 2 2 6 9 7 10 10 9 10 11 12 14 16 3 7 2 5 11 7 4 9 13 5 7 6 5 10 3 20 17 20 15 3 7 2 13 24 23
7 8 5 6 3 3 4 14 12 6 8 0 9 3 12 8 2 10 10 8 10 15 16 4 2 5 2 14 4 3 11 11 4 6 8 5 9 14 13 12 14 17 -4 18 3 19 17
-2 3 8 12 10 10 11 8 7 13 12 4 2 10 7 7 16 15 10 9 8 15 12 10 7 6 8 6 12 6 5 13 9 3 12 3 8 12 14 25 20 14 16 7 30 6 16
5 1 6 10 11 15 17 10 9 16 14 13 7 -4 15 7 11 9 7 6 -1 6 16 7 9 6 2 7 7 8 5 7 16 10 5 6 7 10 6 7 14 16 18 11 11 8 30
1 7 9 10 6 12 15 6 14 13 16 14 12 9 -7 9 7 9 5 3 4 7 6 4 7 10 9 0 5 13 7 4 6 16 14 5 7 4 9 13 8 14 13 9 14 9 3
4 13 10 9 14 11 8 11 19 17 17 20 20 14 9 9 5 5 2 2 3 5 6 5 7 8 10 10 5 -1 14 5 5 4 12 13 6 7 5 13 5 31 7 16 10 15 13
6 11 8 12 11 9 2 10 10 22 22 19 13 13 7 -6 8 10 3 3 2 3 3 5 2 5 8 9 7 3 4 9 7 5 5 9 12 11 12 3 11 7 7 6 11 15 20
7 10 9 12 4 10 12 9 8 18 17 16 13 15 2 20 3 3 8 4 2 0 2 5 2 4 3 6 11 7 6 -0 9 7 5 3 8 8 13 15 12 12 14 15 15 2 2
8 9 12 -0 3 4 8 9 10 10 14 26 18 20 10 34 2 10 4 6 4 4 3 3 3 3 2 1 1 12 2 5 4 4 6 5 7 5 5 9 13 14 4 7 28 22 17
3 16 12 3 11 14 10 4 9 9 9 17 20 26 16 14 -4 4 9 3 1 5 7 3 5 2 1 1 3 5 10 3 1 11 2 5 6 7 7 10 11 11 12 17 9 10 24
4 16 10 13 9 -0 5 4 7 10 9 11 20 18 18 14 32 -7 2 10 10 -1 8 7 6 2 2 2 4 4 3 12 6 -0 9 4 5 6 6 10 11 11 9 12 14 22 22
7 9 7 9 8 10 8 6 6 6 9 8 6 20 24 13 10 14 9 -1 6 10 6 5 5 4 5 3 3 5 3 5 11 1 1 7 5 9 4 10 7 16 7 12 3 14 20
1 8 10 6 9 9 12 7 5 6 6 7 9 10 10 24 9 12 25 20 8 5 8 5 5 7 4 6 4 3 2 4 8 4 6 8 6 8 3 7 11 10 11 10 3 4 4
1 8 7 5 8 9 10 11 7 6 6 10 9 7 7 16 20 16 18 -4 8 5 4 6 1 4 7 6 5 3 1 5 3 10 -0 1 11 5 8 5 10 8 10 10 9 5 12
10 4 5 9 10 7 11 13 10 8 6 7 9 8 5 7 17 19 20 15 11 17 9 11 10 2 6 4 3 4 3 4 3 9 7 7 -0 13 6 5 11 11 7 11 9 9 9
5 12 9 7 8 11 8 9 11 9 7 7 7 7 7 13 6 13 17 18 24 15 9 3 2 9 7 2 3 5 4 5 4 3 5 7 4 9 7 4 6 10 11 7 9 10 10
9 6 5 7 6 11 13 11 11 7 8 7 9 9 6 10 6 5 10 11 16 18 16 21 19 12 1 4 11 11 2 6 6 4 2 9 5 -4 14 6 5 10 8 11 10 11 8
11 11 7 7 10 10 8 10 10 8 7 11 11 10 10 7 9 8 5 6 4 3 9 12 18 17 12 8 1 3 10 -4 8 4 7 5 8 8 -4 16 6 7 4 6 8 8 10
13 11 11 8 9 7 6 11 7 8 9 7 18 14 12 9 9 8 7 7 11 8 7 7 7 2 0 -4 4 21 30 -1 1 6 6 4 4 7 7 4 15 1 10 7 4 2 10
10 6 7 3 5 9 5 14 13 10 8 8 14 14 13 11 10 11 9 9 8 9 7 6 6 8 7 8 9 9 3 3 14 2 6 5 5 11 4 6 3 13 5 4 9 7 2
7 6 0 6 6 7 11 8 9 9 9 6 17 11 8 12 16 13 7 7 7 7 8 8 7 7 9 4 4 5 4 9 10 5 5 6 6 5 8 5 -0 14 12 4 7 6 11
Height
5833 5831 5829 5828 5827 5825 5823 5821 5819 5817 5815 5813 5811 5809 5807 5805 5802 5800 5798 5796 5793 5791 5788 5786 5783 5780 5778 5775 5771 5767 5764 5760 5754 5749 5743 5737 5733 5727 5722 5717 5712 5707 5705 5701 5700 5700 5698
5831 5829 5827 5826 5825 5823 5821 5819 5817 5815 5813 5811 5809 5807 5805 5803 5801 5798 5796 5794 5791 5789 5786 5783 5780 5778 5774 5772 5767 5763 5758 5754 5747 5741 5735 5730 5723 5717 5712 5706 5702 5697 5693 5691 5687 5686 5686
5828 5826 5825 5823 5821 5820 5818 5817 5815 5813 5812 5810 5808 5806 5804 5801 5799 5797 5794 5792 5789 5787 5783 5780 5777 5774 5770 5768 5762 5758 5753 5749 5742 5734 5727 5722 5715 5710 5704 5698 5693 5689 5688 5683 5678 5678 5676
5824 5823 5821 5819 5818 5816 5815 5814 5813 5811 5809 5808 5807 5805 5803 5800 5797 5795 5793 5790 5787 5784 5781 5777 5774 5770 5766 5762 5758 5754 5748 5743 5737 5729 5721 5715 5709 5704 5697 5691 5686 5683 5681 5679 5672 5671 5669
5821 5819 5818 5818 5816 5813 5812 5811 5809 5807 5806 5805 5803 5801 5800 5798 5796 5793 5791 5788 5784 5782 5778 5774 5771 5767 5763 5758 5754 5750 5745 5739 5733 5726 5718 5710 5705 5698 5692 5687 5682 5678 5676 5672 5670 5663 5662
5817 5814 5813 5813 5810 5809 5807 5806 5804 5803 5801 5800 5799 5797 5795 5793 5792 5790 5787 5785 5782 5779 5776 5772 5768 5766 5760 5755 5750 5746 5742 5736 5729 5722 5714 5707 5701 5696 5689 5684 5680 5675 5670 5666 5662 5658 5653
5810 5809 5808 5807 5806 5804 5802 5799 5798 5797 5796 5794 5793 5792 5790 5788 5786 5785 5783 5782 5780 5777 5773 5770 5766 5761 5757 5752 5747 5743 5738 5732 5726 5720 5713 5706 5699 5692 5685 5680 5675 5670 5665 5660 5655 5649 5647
5806 5804 5802 5801 5799 5798 5796 5795 5793 5791 5790 5788 5786 5786 5784 5782 5780 5778 5777 5776 5774 5772 5769 5766 5762 5758 5753 5749 5744 5739 5735 5730 5724 5716 5709 5702 5695 5688 5681 5675 5670 5665 5660 5654 5648 5641 5636
5799 5797 5796 5794 5792 5790 5788 5788 5787 5786 5784 5782 5780 5779 5778 5776 5775 5773 5772 5770 5767 5766 5764 5762 5758 5755 5750 5746 5741 5736 5732 5727 5720 5713 5706 5699 5692 5683 5678 5671 5666 5660 5655 5648 5642 5636 5630
5793 5790 5788 5786 5785 5783 5781 5779 5778 5777 5776 5776 5775 5773 5772 5771 5771 5768 5766 5765 5762 5760 5759 5759 5755 5752 5747 5742 5738 5733 5727 5723 5716 5710 5703 5697 5689 5681 5675 5668 5662 5657 5651 5646 5639 5633 5628
5786 5785 5781 5778 5776 5773 5771 5770 5769 5768 5769 5767 5766 5766 5766 5764 5764 5763 5762 5759 5758 5757 5755 5754 5751 5748 5744 5739 5734 5729 5724 5719 5712 5706 5700 5694 5686 5679 5673 5665 5658 5654 5649 5643 5638 5632 5627
5778 5776 5773 5769 5766 5763 5761 5760 5758 5759 5758 5759 5758 5759 5759 5759 5758 5758 5756 5754 5754 5754 5751 5749 5746 5743 5741 5737 5731 5725 5720 5716 5711 5704 5697 5691 5685 5678 5671 5664 5657 5651 5646 5642 5636 5632 5626
5770 5768 5765 5761 5758 5757 5754 5752 5750 5749 5747 5749 5749 5750 5751 5752 5752 5752 5751 5750 5750 5747 5747 5745 5742 5740 5737 5734 5729 5723 5718 5714 5709 5704 5698 5691 5684 5677 5670 5664 5656 5649 5645 5640 5636 5631 5627
5762 5760 5757 5754 5752 5749 5747 5744 5742 5739 5737 5739 5739 5741 5743 5743 5745 5746 5746 5746 5744 5743 5741 5740 5737 5735 5732 5730 5728 5721 5716 5711 5706 5700 5695 5689 5680 5674 5668 5661 5655 5648 5643 5638 5632 5629 5626
5754 5751 5749 5747 5745 5742 5739 5735 5735 5732 5730 5729 5729 5731 5732 5735 5736 5738 5741 5740 5739 5737 5737 5736 5733 5731 5728 5725 5723 5718 5713 5708 5704 5698 5693 5686 5679 5672 5667 5660 5654 5648 5642 5637 5631 5628 5624
5746 5742 5742 5740 5739 5736 5732 5729 5726 5723 5721 5722 5720 5721 5723 5725 5728 5730 5733 5734 5732 5731 5731 5731 5729 5727 5724 5721 5718 5715 5709 5705 5701 5696 5690 5686 5680 5672 5666 5659 5653 5646 5640 5634 5630 5625 5620
5737 5736 5734 5733 5731 5728 5724 5721 5719 5715 5714 5712 5712 5712 5714 5715 5720 5722 5725 5727 5726 5724 5725 5726 5723 5722 5719 5717 5714 5711 5707 5703 5697 5693 5688 5682 5678 5672 5664 5658 5652 5645 5638 5633 5628 5623 5619
5727 5726 5724 5723 5721 5719 5716 5712 5709 5707 5707 5704 5704 5704 5705 5707 5711 5714 5716 5717 5719 5719 5717 5718 5717 5715 5714 5712 5711 5706 5704 5700 5695 5689 5685 5681 5676 5670 5664 5657 5650 5643 5637 5631 5626 5622 5617
5717 5715 5714 5713 5711 5709 5707 5704 5702 5698 5697 5697 5696 5697 5697 5699 5700 5705 5707 5708 5709 5712 5711 5711 5710 5709 5709 5707 5705 5703 5699 5697 5693 5687 5682 5679 5672 5666 5663 5658 5651 5643 5637 5630 5624 5619 5615
5708 5706 5704 5702 5702 5700 5698 5695 5693 5691 5690 5689 5689 5690 5690 5689 5690 5692 5695 5700 5702 5704 5704 5703 5703 5702 5702 5702 5698 5699 5695 5693 5690 5686 5681 5677 5674 5668 5662 5657 5650 5644 5636 5631 5624 5619 5614
5698 5697 5696 5692 5690 5689 5688 5686 5685 5684 5681 5681 5682 5682 5681 5681 5681 5681 5683 5690 5693 5694 5695 5697 5696 5694 5694 5697 5693 5693 5691 5689 5686 5684 5680 5675 5672 5667 5661 5656 5650 5644 5639 5633 5626 5620 5614
5687 5687 5684 5683 5681 5679 5678 5677 5676 5675 5674 5673 5672 5673 5672 5673 5673 5671 5672 5680 5683 5684 5687 5688 5689 5687 5688 5689 5686 5687 5685 5683 5682 5680 5676 5673 5670 5666 5661 5655 5651 5645 5640 5634 5628 5622 5615
5677 5676 5674 5673 5669 5668 5666 5666 5666 5665 5664 5664 5663 5663 5663 5665 5665 5665 5666 5668 5672 5674 5675 5678 5679 5681 5680 5680 5678 5679 5679 5679 5676 5674 5672 5669 5666 5663 5659 5654 5650 5647 5641 5636 5630 5624 5618
5665 5664 5663 5662 5660 5656 5657 5654 5654 5654 5655 5653 5653 5653 5654 5655 5657 5659 5659 5659 5661 5663 5664 5667 5668 5670 5674 5671 5670 5671 5672 5672 5671 5669 5667 5665 5662 5658 5657 5653 5650 5647 5642 5637 5632 5628 5622
5650 5650 5650 5649 5647 5646 5646 5645 5643 5642 5644 5644 5643 5644 5644 5644 5647 5650 5653 5652 5651 5654 5654 5656 5658 5659 5661 5662 5661 5662 5665 5665 5664 5664 5662 5660 5658 5655 5652 5651 5649 5645 5642 5639 5634 5631 5626
5637 5636 5635 5635 5633 5631 5630 5631 5631 5629 5630 5631 5632 5632 5633 5633 5636 5638 5641 5643 5644 5644 5646 5646 5647 5648 5648 5649 5651 5649 5653 5656 5657 5657 5657 5655 5653 5652 5649 5647 5645 5643 5642 5639 5636 5633 5629
5624 5622 5621 5621 5619 5618 5616 5615 5616 5615 5616 5617 5618 5619 5619 5620 5622 5624 5626 5629 5631 5632 5633 5635 5636 5637 5638 5639 5640 5640 5642 5646 5646 5648 5650 5649 5647 5647 5644 5643 5643 5641 5639 5638 5637 5637 5631
5608 5607 5607 5606 5604 5602 5600 5600 5600 5600 5601 5603 5603 5603 5605 5606 5608 5608 5612 5613 5615 5617 5619 5621 5625 5627 5627 5627 5629 5629 5631 5635 5637 5640 5641 5641 5641 5641 5640 5638 5638 5637 5636 5637 5635 5633 5632
5592 5591 5591 5591 5589 5588 5585 5584 5583 5584 5585 5585 5588 5587 5587 5590 5596 5595 5596 5598 5601 5603 5603 5606 5609 5610 5613 5615 5617 5618 5620 5623 5626 5629 5631 5633 5634 5634 5635 5635 5632 5631 5631 5631 5631 5630 5629